EZY48EA LEAL-EGGP

Flight info

Callsign EZY48EA
Flight time 2h 26m
Altitude 36000
Route MITO3A MITOS N608 COMPI Y90 USKAR N863 GIROM AGN SECHE UVELI CNA MANAK MUREL NOZHU SHIRI TOJAQ EPACE ACCOP P16 PEPZE PEPZ1L
Aircraft A320/M-V/N

Departure

Time 2026-05-04 14:21
Airport Alicante-Elche Miguel Hernández Airport (LEAL)

Arrival

Time 2026-05-04 16:47
Airport Liverpool John Lennon Airport (EGGP)
Time Latitude Longitude Altitude Speed Heading
2026-05-04 13:47 38.28469 -0.55863 97 ft 0 kts 11°
2026-05-04 14:12 38.28466 -0.55864 97 ft 3 kts 11°
2026-05-04 14:13 38.28440 -0.55868 97 ft 4 kts
2026-05-04 14:13 38.28414 -0.55864 95 ft 4 kts 333°
2026-05-04 14:13 38.28399 -0.55846 96 ft 1 kts 280°
2026-05-04 14:13 38.28399 -0.55845 96 ft 0 kts 280°
2026-05-04 14:15 38.28407 -0.55906 96 ft 11 kts 279°
2026-05-04 14:16 38.28432 -0.56090 98 ft 10 kts 280°
2026-05-04 14:16 38.28448 -0.56204 99 ft 12 kts 280°
2026-05-04 14:17 38.28479 -0.56423 109 ft 9 kts 280°
2026-05-04 14:17 38.28491 -0.56514 113 ft 13 kts 280°
2026-05-04 14:17 38.28522 -0.56737 120 ft 16 kts 280°
2026-05-04 14:18 38.28538 -0.56848 127 ft 10 kts 280°
2026-05-04 14:18 38.28551 -0.56940 131 ft 11 kts 280°
2026-05-04 14:19 38.28579 -0.57138 140 ft 16 kts 280°
2026-05-04 14:19 38.28601 -0.57304 147 ft 18 kts 279°
2026-05-04 14:19 38.28563 -0.57422 150 ft 16 kts 202°
2026-05-04 14:19 38.28454 -0.57431 152 ft 16 kts 144°
2026-05-04 14:20 38.28431 -0.57337 149 ft 22 kts 101°
2026-05-04 14:20 38.28354 -0.56803 134 ft 96 kts 101°
2026-05-04 14:20 38.28200 -0.55712 99 ft 152 kts 100°
2026-05-04 14:21 38.27688 -0.52687 945 ft 182 kts 108°
2026-05-04 14:21 38.27394 -0.51097 1508 ft 195 kts 103°
2026-05-04 14:21 38.27415 -0.49284 1809 ft 221 kts 73°
2026-05-04 14:21 38.28206 -0.47486 2208 ft 246 kts 56°
2026-05-04 14:22 38.29218 -0.45607 2704 ft 266 kts 56°
2026-05-04 14:22 38.30265 -0.43627 3510 ft 272 kts 55°
2026-05-04 14:22 38.31329 -0.41598 4349 ft 279 kts 55°
2026-05-04 14:22 38.32407 -0.39522 5195 ft 283 kts 57°
2026-05-04 14:23 38.33996 -0.34831 6803 ft 294 kts 68°
2026-05-04 14:23 38.34746 -0.32379 7565 ft 300 kts 68°
2026-05-04 14:23 38.35512 -0.29878 8336 ft 305 kts 68°
2026-05-04 14:24 38.36287 -0.27372 9092 ft 311 kts 68°
2026-05-04 14:24 38.37121 -0.24804 9847 ft 317 kts 67°
2026-05-04 14:24 38.38000 -0.22177 10338 ft 332 kts 67°
2026-05-04 14:24 38.38944 -0.19381 10558 ft 355 kts 66°
2026-05-04 14:25 38.39942 -0.16422 10974 ft 369 kts 66°
2026-05-04 14:25 38.41998 -0.10302 12299 ft 380 kts 66°
2026-05-04 14:25 38.43326 -0.07363 12948 ft 385 kts 52°
2026-05-04 14:26 38.45154 -0.04865 13596 ft 387 kts 37°
2026-05-04 14:26 38.47394 -0.02952 14182 ft 387 kts 23°
2026-05-04 14:26 38.49909 -0.01746 14760 ft 385 kts
2026-05-04 14:26 38.52549 -0.01309 15348 ft 381 kts 355°
2026-05-04 14:27 38.55212 -0.01305 15951 ft 384 kts 354°
2026-05-04 14:27 38.57900 -0.01300 16549 ft 388 kts 354°
2026-05-04 14:27 38.60611 -0.01287 17141 ft 392 kts 354°
2026-05-04 14:27 38.63348 -0.01268 17722 ft 395 kts 354°
2026-05-04 14:28 38.66075 -0.01247 18297 ft 398 kts 354°
2026-05-04 14:28 38.68858 -0.01227 18748 ft 402 kts 354°
2026-05-04 14:28 38.71673 -0.01207 19211 ft 406 kts 353°
2026-05-04 14:28 38.74509 -0.01185 19660 ft 410 kts 354°
2026-05-04 14:29 38.80260 -0.01150 20597 ft 417 kts 354°
2026-05-04 14:29 38.86108 -0.01116 21578 ft 424 kts 354°
2026-05-04 14:30 38.89069 -0.01097 22045 ft 427 kts 353°
2026-05-04 14:30 38.92056 -0.01078 22512 ft 431 kts 353°
2026-05-04 14:30 38.98104 -0.01034 23380 ft 437 kts 353°
2026-05-04 14:31 39.01161 -0.01013 23755 ft 440 kts 353°
2026-05-04 14:31 39.07330 -0.00971 24488 ft 445 kts 353°
2026-05-04 14:32 39.13524 -0.00929 25227 ft 450 kts 353°
2026-05-04 14:32 39.16667 -0.00905 25578 ft 453 kts 353°
2026-05-04 14:32 39.19829 -0.00884 25927 ft 455 kts 353°
2026-05-04 14:32 39.23005 -0.00862 26273 ft 457 kts 353°
2026-05-04 14:33 39.26193 -0.00841 26616 ft 460 kts 353°
2026-05-04 14:33 39.29398 -0.00822 26957 ft 462 kts 353°
2026-05-04 14:33 39.32625 -0.00792 27291 ft 465 kts 355°
2026-05-04 14:33 39.35877 -0.00359 27638 ft 476 kts
2026-05-04 14:34 39.39120 0.00698 27930 ft 484 kts 11°
2026-05-04 14:34 39.42365 0.01909 28245 ft 486 kts 11°
2026-05-04 14:34 39.45624 0.03117 28560 ft 489 kts 11°
2026-05-04 14:34 39.48906 0.04329 28869 ft 491 kts 11°
2026-05-04 14:35 39.52196 0.05543 29167 ft 493 kts 11°
2026-05-04 14:35 39.55506 0.06763 29454 ft 496 kts 11°
2026-05-04 14:35 39.58786 0.07975 29760 ft 498 kts 11°
2026-05-04 14:35 39.62126 0.09210 30035 ft 500 kts 11°
2026-05-04 14:36 39.65476 0.10452 30279 ft 501 kts 11°
2026-05-04 14:36 39.68834 0.11700 30515 ft 503 kts 11°
2026-05-04 14:36 39.72205 0.12957 30745 ft 505 kts 11°
2026-05-04 14:36 39.75584 0.14216 31059 ft 505 kts 11°
2026-05-04 14:37 39.78958 0.15475 31400 ft 504 kts 11°
2026-05-04 14:37 39.82326 0.16734 31758 ft 503 kts 11°
2026-05-04 14:37 39.85682 0.17989 32070 ft 502 kts 11°
2026-05-04 14:37 39.89044 0.19244 32397 ft 502 kts 11°
2026-05-04 14:38 39.92404 0.20502 32714 ft 502 kts 11°
2026-05-04 14:38 39.95760 0.21763 33034 ft 501 kts 11°
2026-05-04 14:38 39.99112 0.23021 33351 ft 501 kts 11°
2026-05-04 14:38 40.02462 0.24277 33670 ft 500 kts 11°
2026-05-04 14:39 40.05807 0.25528 33994 ft 500 kts 11°
2026-05-04 14:39 40.09160 0.26782 34260 ft 501 kts 11°
2026-05-04 14:39 40.12508 0.28037 34528 ft 500 kts 11°
2026-05-04 14:40 40.19196 0.30561 35054 ft 499 kts 11°
2026-05-04 14:40 40.22486 0.31805 35305 ft 499 kts 11°
2026-05-04 14:40 40.25812 0.33066 35588 ft 498 kts 11°
2026-05-04 14:40 40.29141 0.34326 35813 ft 498 kts 11°
2026-05-04 14:41 40.32471 0.35584 35914 ft 497 kts 11°
2026-05-04 14:41 40.35783 0.36836 35927 ft 495 kts 11°
2026-05-04 14:42 40.48998 0.41867 35927 ft 495 kts 11°
2026-05-04 14:42 40.55608 0.44384 35913 ft 495 kts 11°
2026-05-04 14:43 40.62221 0.46898 35912 ft 495 kts 11°
2026-05-04 14:43 40.68840 0.49442 35908 ft 494 kts 11°
2026-05-04 14:44 40.75436 0.51988 35904 ft 494 kts 11°
2026-05-04 14:44 40.82004 0.54515 35908 ft 495 kts 11°
2026-05-04 14:45 40.88626 0.57064 35914 ft 495 kts 11°
2026-05-04 14:45 40.95248 0.59617 35930 ft 495 kts 11°
2026-05-04 14:46 41.01852 0.62178 35921 ft 495 kts 11°
2026-05-04 14:46 41.08425 0.64729 35915 ft 495 kts 11°
2026-05-04 14:47 41.15038 0.67306 35918 ft 495 kts 12°
2026-05-04 14:47 41.21655 0.69883 35904 ft 496 kts 12°
2026-05-04 14:48 41.28274 0.72466 35894 ft 496 kts 12°
2026-05-04 14:48 41.34895 0.75059 35921 ft 496 kts 12°
2026-05-04 14:49 41.41523 0.77653 35884 ft 496 kts 12°
2026-05-04 14:49 41.48152 0.80251 35885 ft 497 kts 12°
2026-05-04 14:50 41.54785 0.82864 35892 ft 497 kts 12°
2026-05-04 14:50 41.61363 0.85467 35909 ft 497 kts 12°
2026-05-04 14:51 41.67990 0.88084 35904 ft 496 kts 12°
2026-05-04 14:51 41.74619 0.90706 35902 ft 497 kts 12°
2026-05-04 14:52 41.81248 0.93343 35921 ft 497 kts 12°
2026-05-04 14:52 41.87867 0.95986 35928 ft 496 kts 13°
2026-05-04 14:53 41.94493 0.98629 35930 ft 496 kts 12°
2026-05-04 14:53 42.01109 1.01269 35935 ft 496 kts 13°
2026-05-04 14:54 42.07727 1.03924 35926 ft 496 kts 13°
2026-05-04 14:54 42.14414 1.06022 35921 ft 489 kts
2026-05-04 14:55 42.21089 1.05864 35926 ft 480 kts 349°
2026-05-04 14:55 42.27750 1.05135 35926 ft 481 kts 349°
2026-05-04 14:56 42.34422 1.04419 35925 ft 481 kts 349°
2026-05-04 14:56 42.41098 1.03706 35939 ft 481 kts 350°
2026-05-04 14:57 42.47775 1.02978 35924 ft 481 kts 350°
2026-05-04 14:57 42.54407 1.02249 35911 ft 481 kts 350°
2026-05-04 14:58 42.61085 1.01523 35924 ft 481 kts 350°
2026-05-04 14:58 42.66682 1.00908 35922 ft 482 kts 350°
2026-05-04 14:59 42.74451 1.00052 35918 ft 482 kts 350°
2026-05-04 15:00 42.84480 0.98960 35920 ft 482 kts 350°
2026-05-04 15:00 42.91121 0.98237 35913 ft 482 kts 350°
2026-05-04 15:01 43.01149 0.97128 35908 ft 482 kts 350°
2026-05-04 15:01 43.07843 0.96380 35924 ft 483 kts 351°
2026-05-04 15:02 43.14553 0.95635 35933 ft 484 kts 351°
2026-05-04 15:02 43.21263 0.94892 35927 ft 484 kts 351°
2026-05-04 15:03 43.27967 0.94140 35930 ft 484 kts 351°
2026-05-04 15:03 43.34679 0.93388 35921 ft 484 kts 351°
2026-05-04 15:04 43.41354 0.92646 35922 ft 485 kts 351°
2026-05-04 15:04 43.48084 0.91897 35948 ft 486 kts 351°
2026-05-04 15:05 43.54845 0.91141 35965 ft 488 kts 351°
2026-05-04 15:05 43.61596 0.90374 35936 ft 484 kts 351°
2026-05-04 15:06 43.68294 0.89618 35931 ft 482 kts 351°
2026-05-04 15:07 43.78342 0.88471 35919 ft 483 kts 351°
2026-05-04 15:07 43.85039 0.87713 35931 ft 483 kts 349°
2026-05-04 15:08 43.91464 0.85536 35925 ft 471 kts 332°
2026-05-04 15:08 43.96392 0.82388 35919 ft 468 kts 329°
2026-05-04 15:09 44.03271 0.77947 35928 ft 469 kts 329°
2026-05-04 15:09 44.08203 0.74773 35946 ft 470 kts 330°
2026-05-04 15:10 44.17095 0.69024 35928 ft 470 kts 330°
2026-05-04 15:11 44.25971 0.63229 35927 ft 470 kts 330°
2026-05-04 15:11 44.31898 0.59359 35935 ft 470 kts 330°
2026-05-04 15:12 44.37827 0.55491 35934 ft 470 kts 330°
2026-05-04 15:12 44.43759 0.51612 35942 ft 470 kts 330°
2026-05-04 15:13 44.49667 0.47710 35930 ft 470 kts 330°
2026-05-04 15:13 44.55577 0.43774 35929 ft 470 kts 330°
2026-05-04 15:14 44.61478 0.39834 35925 ft 470 kts 330°
2026-05-04 15:14 44.67384 0.35897 35944 ft 469 kts 330°
2026-05-04 15:15 44.73270 0.31971 35937 ft 468 kts 330°
2026-05-04 15:15 44.79154 0.28034 35925 ft 468 kts 330°
2026-05-04 15:16 44.87930 0.22142 35922 ft 468 kts 330°
2026-05-04 15:17 44.96743 0.16200 35924 ft 468 kts 330°
2026-05-04 15:17 45.05550 0.10236 35927 ft 468 kts 330°
2026-05-04 15:18 45.11430 0.06261 35920 ft 468 kts 330°
2026-05-04 15:19 45.20210 0.00292 35931 ft 469 kts 330°
2026-05-04 15:19 45.29038 -0.05735 35956 ft 469 kts 330°
2026-05-04 15:20 45.34916 -0.09754 35951 ft 469 kts 330°
2026-05-04 15:20 45.40789 -0.13783 35957 ft 468 kts 330°
2026-05-04 15:21 45.46656 -0.17823 35955 ft 468 kts 330°
2026-05-04 15:22 45.55415 -0.23868 35959 ft 468 kts 330°
2026-05-04 15:22 45.64217 -0.29948 35962 ft 468 kts 329°
2026-05-04 15:23 45.69529 -0.35166 35951 ft 461 kts 317°
2026-05-04 15:23 45.74567 -0.40861 35939 ft 461 kts 317°
2026-05-04 15:24 45.84654 -0.52254 35942 ft 462 kts 317°
2026-05-04 15:25 45.89661 -0.57938 35938 ft 462 kts 317°
2026-05-04 15:26 45.97213 -0.66533 35951 ft 462 kts 317°
2026-05-04 15:26 46.04762 -0.75146 35942 ft 462 kts 317°
2026-05-04 15:27 46.12307 -0.83799 35955 ft 462 kts 317°
2026-05-04 15:28 46.19823 -0.92438 35945 ft 463 kts 318°
2026-05-04 15:29 46.28206 -0.99584 35971 ft 469 kts 328°
2026-05-04 15:30 46.48188 -1.15348 35956 ft 467 kts 328°
2026-05-04 15:31 46.56697 -1.22109 35986 ft 467 kts 328°
2026-05-04 15:32 46.70916 -1.33451 35987 ft 465 kts 329°
2026-05-04 15:34 46.85058 -1.44800 35976 ft 464 kts 328°
2026-05-04 15:34 46.93544 -1.51649 35969 ft 464 kts 329°
2026-05-04 15:35 47.02034 -1.58508 35966 ft 465 kts 329°
2026-05-04 15:36 47.10516 -1.65407 35986 ft 464 kts 329°
2026-05-04 15:36 47.16164 -1.70007 35962 ft 464 kts 329°
2026-05-04 15:37 47.21809 -1.74624 35958 ft 464 kts 329°
2026-05-04 15:37 47.27451 -1.79244 35956 ft 464 kts 329°
2026-05-04 15:38 47.33056 -1.83843 35960 ft 464 kts 329°
2026-05-04 15:38 47.38707 -1.88494 35974 ft 465 kts 329°
2026-05-04 15:39 47.44350 -1.93157 35965 ft 465 kts 329°
2026-05-04 15:40 47.52823 -2.00171 35963 ft 465 kts 329°
2026-05-04 15:40 47.58468 -2.04852 35966 ft 465 kts 329°
2026-05-04 15:41 47.64078 -2.09525 35981 ft 466 kts 329°
2026-05-04 15:41 47.69727 -2.14244 35978 ft 466 kts 329°
2026-05-04 15:42 47.75377 -2.18971 35986 ft 466 kts 329°
2026-05-04 15:42 47.81025 -2.23698 35983 ft 466 kts 329°
2026-05-04 15:43 47.86665 -2.28435 35986 ft 465 kts 329°
2026-05-04 15:43 47.92302 -2.33182 35984 ft 465 kts 329°
2026-05-04 15:44 47.97925 -2.37937 35983 ft 464 kts 329°
2026-05-04 15:44 48.03545 -2.42705 35983 ft 464 kts 329°
2026-05-04 15:45 48.09121 -2.47446 35985 ft 464 kts 329°
2026-05-04 15:45 48.14724 -2.52219 35986 ft 464 kts 329°
2026-05-04 15:46 48.20340 -2.57005 35997 ft 463 kts 329°
2026-05-04 15:46 48.25908 -2.61759 35997 ft 462 kts 329°
2026-05-04 15:47 48.31493 -2.66549 36000 ft 462 kts 329°
2026-05-04 15:47 48.37069 -2.71345 36000 ft 461 kts 329°
2026-05-04 15:48 48.42628 -2.76147 35999 ft 461 kts 329°
2026-05-04 15:48 48.50968 -2.83370 35998 ft 460 kts 329°
2026-05-04 15:49 48.56480 -2.88156 36007 ft 460 kts 329°
2026-05-04 15:49 48.62024 -2.92970 36005 ft 460 kts 329°
2026-05-04 15:50 48.67570 -2.97795 36002 ft 459 kts 329°
2026-05-04 15:50 48.73109 -3.02635 35998 ft 459 kts 329°
2026-05-04 15:51 48.78632 -3.07489 36009 ft 459 kts 329°
2026-05-04 15:51 48.84161 -3.12347 36002 ft 459 kts 329°
2026-05-04 15:52 48.89687 -3.17216 36001 ft 459 kts 329°
2026-05-04 15:52 48.95166 -3.22063 35997 ft 459 kts 329°
2026-05-04 15:53 49.00690 -3.26956 35993 ft 459 kts 329°
2026-05-04 15:53 49.06212 -3.31849 35993 ft 459 kts 329°
2026-05-04 15:54 49.11728 -3.36752 35990 ft 459 kts 329°
2026-05-04 15:54 49.17238 -3.41670 35992 ft 459 kts 329°
2026-05-04 15:55 49.22744 -3.46600 35993 ft 458 kts 329°
2026-05-04 15:55 49.28209 -3.51513 35991 ft 459 kts 329°
2026-05-04 15:56 49.33855 -3.56040 36002 ft 459 kts 339°
2026-05-04 15:56 49.39846 -3.59442 36003 ft 459 kts 339°
2026-05-04 15:57 49.45833 -3.62858 36000 ft 459 kts 339°
2026-05-04 15:57 49.51817 -3.66284 35997 ft 458 kts 339°
2026-05-04 15:58 49.57791 -3.69718 35998 ft 458 kts 339°
2026-05-04 15:58 49.63767 -3.73153 36000 ft 458 kts 339°
2026-05-04 15:59 49.69887 -3.75781 35989 ft 458 kts 353°
2026-05-04 15:59 49.76225 -3.75667 35998 ft 456 kts
2026-05-04 16:00 49.82558 -3.74909 36003 ft 456 kts
2026-05-04 16:00 49.88844 -3.74168 36000 ft 456 kts
2026-05-04 16:01 49.95174 -3.73417 36003 ft 456 kts
2026-05-04 16:01 50.01498 -3.72664 36010 ft 455 kts
2026-05-04 16:02 50.07814 -3.71914 36008 ft 455 kts
2026-05-04 16:03 50.17283 -3.70798 36005 ft 454 kts
2026-05-04 16:03 50.22517 -3.70166 36019 ft 454 kts
2026-05-04 16:04 50.28807 -3.69404 36017 ft 453 kts
2026-05-04 16:04 50.38220 -3.68261 35996 ft 452 kts
2026-05-04 16:05 50.44493 -3.67429 35998 ft 452 kts
2026-05-04 16:05 50.50736 -3.66251 35547 ft 449 kts
2026-05-04 16:06 50.53845 -3.65601 35132 ft 451 kts
2026-05-04 16:06 50.63128 -3.63713 33842 ft 446 kts
2026-05-04 16:07 50.66201 -3.63122 33344 ft 443 kts
2026-05-04 16:07 50.75314 -3.61407 31907 ft 436 kts
2026-05-04 16:08 50.78320 -3.60836 31445 ft 434 kts
2026-05-04 16:08 50.87222 -3.59126 30112 ft 426 kts
2026-05-04 16:09 50.93079 -3.57999 29078 ft 421 kts
2026-05-04 16:09 50.98871 -3.56875 28072 ft 416 kts
2026-05-04 16:10 51.04590 -3.55772 27105 ft 411 kts
2026-05-04 16:11 51.13038 -3.54118 25711 ft 405 kts
2026-05-04 16:11 51.15823 -3.53573 25269 ft 402 kts
2026-05-04 16:12 51.24129 -3.51952 25008 ft 401 kts
2026-05-04 16:12 51.32386 -3.50323 25008 ft 396 kts
2026-05-04 16:13 51.37848 -3.49237 25030 ft 395 kts
2026-05-04 16:13 51.43299 -3.48157 25027 ft 394 kts
2026-05-04 16:14 51.48712 -3.47094 25027 ft 394 kts
2026-05-04 16:14 51.54159 -3.46018 25026 ft 391 kts
2026-05-04 16:15 51.62176 -3.44424 25025 ft 385 kts
2026-05-04 16:16 51.67498 -3.43360 25020 ft 385 kts
2026-05-04 16:16 51.75479 -3.41755 25028 ft 385 kts
2026-05-04 16:17 51.80692 -3.40706 25026 ft 385 kts
2026-05-04 16:18 51.88626 -3.39105 25034 ft 385 kts
2026-05-04 16:18 51.91286 -3.38568 25031 ft 385 kts
2026-05-04 16:19 51.99307 -3.37566 25022 ft 386 kts
2026-05-04 16:19 52.04673 -3.37330 25029 ft 385 kts
2026-05-04 16:20 52.12687 -3.36852 24500 ft 381 kts
2026-05-04 16:20 52.17982 -3.36458 23791 ft 379 kts
2026-05-04 16:21 52.25814 -3.35869 22651 ft 374 kts
2026-05-04 16:22 52.30989 -3.35491 21898 ft 370 kts
2026-05-04 16:22 52.38633 -3.34926 20805 ft 364 kts
2026-05-04 16:23 52.46154 -3.34379 19748 ft 358 kts
2026-05-04 16:24 52.55939 -3.33650 18377 ft 344 kts
2026-05-04 16:25 52.60682 -3.33294 17639 ft 338 kts
2026-05-04 16:26 52.69509 -3.29252 16163 ft 328 kts 20°
2026-05-04 16:26 52.75893 -3.25423 15103 ft 324 kts 20°
2026-05-04 16:27 52.80118 -3.22896 14081 ft 317 kts 19°
2026-05-04 16:28 52.86202 -3.19254 12453 ft 309 kts 19°
2026-05-04 16:28 52.91859 -3.14283 11094 ft 298 kts 36°
2026-05-04 16:29 52.98447 -3.06247 11050 ft 287 kts 36°
2026-05-04 16:30 53.03090 -3.00597 11053 ft 272 kts 33°
2026-05-04 16:31 53.06429 -2.97759 11059 ft 269 kts
2026-05-04 16:31 53.11969 -2.98744 10607 ft 265 kts 350°
2026-05-04 16:32 53.17379 -3.00178 9687 ft 261 kts 350°
2026-05-04 16:33 53.20941 -3.01130 9011 ft 258 kts 350°
2026-05-04 16:33 53.24471 -3.02050 8326 ft 255 kts 350°
2026-05-04 16:34 53.27962 -3.02914 7687 ft 253 kts 350°
2026-05-04 16:34 53.29701 -3.03362 7372 ft 252 kts 350°
2026-05-04 16:35 53.34834 -3.04704 6361 ft 248 kts 350°
2026-05-04 16:35 53.39874 -3.06083 5506 ft 236 kts 350°
2026-05-04 16:36 53.41489 -3.06467 5237 ft 234 kts 359°
2026-05-04 16:36 53.44107 -3.03822 4603 ft 231 kts 65°
2026-05-04 16:37 53.44474 -2.98499 3897 ft 231 kts 90°
2026-05-04 16:37 53.44475 -2.95811 3569 ft 230 kts 90°
2026-05-04 16:37 53.44470 -2.90477 3017 ft 226 kts 90°
2026-05-04 16:38 53.44459 -2.85193 2986 ft 229 kts 90°
2026-05-04 16:39 53.44436 -2.77171 2988 ft 229 kts 90°
2026-05-04 16:39 53.44420 -2.71901 2981 ft 216 kts 90°
2026-05-04 16:40 53.44402 -2.67103 2875 ft 199 kts 90°
2026-05-04 16:40 53.44382 -2.62516 2884 ft 196 kts 90°
2026-05-04 16:41 53.43746 -2.58263 2878 ft 195 kts 138°
2026-05-04 16:41 53.39845 -2.57083 2318 ft 195 kts 180°
2026-05-04 16:42 53.36228 -2.58476 1965 ft 158 kts 231°
2026-05-04 16:43 53.34867 -2.61141 1991 ft 146 kts 240°
2026-05-04 16:43 53.34341 -2.64294 1986 ft 144 kts 265°
2026-05-04 16:43 53.34240 -2.65955 1984 ft 143 kts 267°
2026-05-04 16:44 53.33925 -2.72567 1397 ft 141 kts 268°
2026-05-04 16:45 53.33774 -2.75840 950 ft 142 kts 268°
2026-05-04 16:46 53.33530 -2.80686 402 ft 140 kts 270°
2026-05-04 16:46 53.33412 -2.83900 87 ft 134 kts 269°
2026-05-04 16:47 53.33318 -2.86093 75 ft 40 kts 266°
2026-05-04 16:47 53.33414 -2.86427 82 ft 10 kts 358°
2026-05-04 16:48 53.33477 -2.86331 87 ft 0 kts 70°
2026-05-04 16:48 53.33486 -2.86324 89 ft 10 kts 29°
2026-05-04 16:49 53.33586 -2.86196 88 ft 8 kts 81°
2026-05-04 16:49 53.33594 -2.86029 85 ft 7 kts 86°
2026-05-04 16:50 53.33601 -2.85798 85 ft 9 kts 85°
2026-05-04 16:50 53.33610 -2.85601 87 ft 8 kts 85°
2026-05-04 16:51 53.33653 -2.85439 86 ft 6 kts
2026-05-04 16:51 53.33668 -2.85441 89 ft 0 kts 355°